| time (UTC) | temp F | wind direction | speed MPH | gust MPH | rain 1hr in | rain 24hr in | rain mn in | humidity % | barometer mb |
| 20260503012313 | 54 | 67 | 0.0 | 1.0 | 0.00 | 0.01 | 0.01 | 57 | 1015.1 |
| 20260503012115 | 54 | 102 | 0.0 | 1.0 | 0.00 | 0.01 | 0.01 | 56 | 1015.0 |
| 20260503011312 | 55 | 102 | 0.0 | 1.0 | 0.00 | 0.01 | 0.01 | 55 | 1014.9 |
| 20260503011116 | 55 | 102 | 0.0 | 1.0 | 0.00 | 0.01 | 0.01 | 55 | 1014.9 |
| 20260503010310 | 55 | 102 | 0.0 | 0.0 | 0.00 | 0.01 | 0.01 | 56 | 1014.8 |
| 20260503005810 | 55 | 102 | 0.0 | 0.0 | 0.00 | 0.01 | 0.01 | 55 | 1014.7 |
| 20260503005308 | 55 | 102 | 0.0 | 1.0 | 0.00 | 0.01 | 0.01 | 55 | 1014.7 |
| 20260503004808 | 56 | 102 | 0.0 | 1.0 | 0.00 | 0.01 | 0.01 | 56 | 1014.6 |
| 20260503004310 | 56 | 102 | 0.0 | 1.0 | 0.00 | 0.01 | 0.01 | 55 | 1014.5 |
| 20260503003809 | 56 | 102 | 0.0 | 1.0 | 0.00 | 0.01 | 0.01 | 55 | 1014.5 |
| 20260503003306 | 56 | 102 | 0.0 | 1.0 | 0.00 | 0.01 | 0.01 | 54 | 1014.3 |
| 20260503002809 | 56 | 102 | 0.0 | 1.0 | 0.00 | 0.01 | 0.01 | 54 | 1014.3 |
| 20260503002559 | 56 | 102 | 0.0 | 1.0 | 0.00 | 0.01 | 0.01 | 53 | 1014.2 |
| 20260503001805 | 56 | 102 | 0.0 | 1.0 | 0.00 | 0.01 | 0.01 | 54 | 1013.9 |
| 20260503001304 | 57 | 102 | 0.0 | 1.0 | 0.00 | 0.01 | 0.01 | 54 | 1013.7 |
| 20260503001115 | 57 | 102 | 0.0 | 1.0 | 0.00 | 0.01 | 0.01 | 54 | 1013.6 |
| 20260503000304 | 57 | 102 | 0.0 | 1.0 | 0.00 | 0.01 | 0.01 | 53 | 1013.4 |
| 20260502235804 | 57 | 102 | 1.0 | 2.0 | 0.00 | 0.01 | 0.01 | 52 | 1013.5 |
| 20260502235305 | 57 | 102 | 1.0 | 2.0 | 0.00 | 0.01 | 0.01 | 52 | 1013.4 |
| 20260502235104 | 58 | 100 | 1.0 | 2.0 | 0.00 | 0.01 | 0.01 | 53 | 1013.3 |
| 20260502234302 | 59 | 43 | 0.0 | 1.0 | 0.00 | 0.01 | 0.01 | 52 | 1013.1 |
| 20260502233804 | 59 | 43 | 0.0 | 1.0 | 0.00 | 0.01 | 0.01 | 50 | 1013.1 |
| 20260502233302 | 59 | 43 | 0.0 | 1.0 | 0.00 | 0.01 | 0.01 | 49 | 1013.0 |
| 20260502232801 | 60 | 44 | 0.0 | 1.0 | 0.00 | 0.01 | 0.01 | 49 | 1012.8 |
| 20260502232304 | 60 | 44 | 0.0 | 1.0 | 0.00 | 0.01 | 0.01 | 50 | 1012.8 |
| 20260502231802 | 60 | 44 | 0.0 | 1.0 | 0.00 | 0.01 | 0.01 | 48 | 1012.7 |
| 20260502231301 | 60 | 44 | 0.0 | 1.0 | 0.00 | 0.01 | 0.01 | 47 | 1012.6 |
| 20260502230801 | 60 | 43 | 0.0 | 1.0 | 0.00 | 0.01 | 0.01 | 47 | 1012.6 |
| 20260502230611 | 61 | 43 | 0.0 | 3.0 | 0.00 | 0.01 | 0.01 | 45 | 1012.6 |
| 20260502225800 | 61 | 43 | 1.0 | 3.0 | 0.00 | 0.01 | 0.01 | 44 | 1012.6 |
| 20260502225304 | 61 | 36 | 1.0 | 3.0 | 0.00 | 0.01 | 0.01 | 44 | 1012.5 |
| 20260502224804 | 61 | 69 | 1.0 | 3.0 | 0.00 | 0.01 | 0.01 | 44 | 1012.6 |
| 20260502224302 | 61 | 130 | 1.0 | 2.0 | 0.00 | 0.01 | 0.01 | 45 | 1012.5 |
| 20260502223802 | 61 | 130 | 1.0 | 2.0 | 0.00 | 0.01 | 0.01 | 45 | 1012.5 |
| 20260502223303 | 61 | 144 | 1.0 | 2.0 | 0.00 | 0.01 | 0.01 | 45 | 1012.5 |
| 20260502222801 | 61 | 181 | 1.0 | 2.0 | 0.00 | 0.01 | 0.01 | 43 | 1012.6 |
| 20260502222301 | 61 | 190 | 1.0 | 3.0 | 0.00 | 0.01 | 0.01 | 44 | 1012.6 |
| 20260502221802 | 61 | 182 | 1.0 | 3.0 | 0.00 | 0.01 | 0.01 | 43 | 1012.5 |
| 20260502221257 | 61 | 137 | 1.0 | 3.0 | 0.00 | 0.01 | 0.01 | 43 | 1012.5 |
| 20260502220753 | 61 | 153 | 1.0 | 3.0 | 0.00 | 0.01 | 0.01 | 44 | 1012.4 |
| 20260502220603 | 61 | 150 | 1.0 | 3.0 | 0.00 | 0.01 | 0.01 | 45 | 1012.4 |
| 20260502215749 | 61 | 145 | 1.0 | 3.0 | 0.00 | 0.01 | 0.01 | 42 | 1012.4 |
| 20260502215249 | 61 | 128 | 1.0 | 3.0 | 0.00 | 0.01 | 0.01 | 42 | 1012.3 |
| 20260502214748 | 62 | 93 | 1.0 | 3.0 | 0.00 | 0.01 | 0.01 | 42 | 1012.2 |
| 20260502214245 | 62 | 146 | 2.0 | 3.0 | 0.00 | 0.01 | 0.01 | 44 | 1012.3 |
| 20260502213748 | 62 | 121 | 1.0 | 3.0 | 0.00 | 0.01 | 0.01 | 43 | 1012.3 |
| 20260502213244 | 62 | 24 | 1.0 | 2.0 | 0.00 | 0.01 | 0.01 | 39 | 1012.2 |
| 20260502213130 | 61 | 31 | 1.0 | 4.0 | 0.00 | 0.01 | 0.01 | 41 | 1012.3 |
| 20260502212246 | 62 | 163 | 1.0 | 4.0 | 0.00 | 0.01 | 0.01 | 42 | 1012.3 |
| 20260502211740 | 62 | 171 | 1.0 | 3.0 | 0.00 | 0.01 | 0.01 | 41 | 1012.4 |
| 20260502211239 | 61 | 130 | 1.0 | 3.0 | 0.00 | 0.01 | 0.01 | 41 | 1012.4 |
| 20260502210737 | 61 | 88 | 1.0 | 2.0 | 0.00 | 0.01 | 0.01 | 39 | 1012.4 |
| 20260502210241 | 61 | 232 | 2.0 | 3.0 | 0.00 | 0.01 | 0.01 | 39 | 1012.4 |
| 20260502210049 | 60 | 108 | 2.0 | 3.0 | 0.00 | 0.01 | 0.01 | 39 | 1012.5 |
| 20260502205235 | 61 | 134 | 1.0 | 3.0 | 0.00 | 0.01 | 0.01 | 38 | 1012.4 |
| 20260502204735 | 62 | 43 | 2.0 | 4.0 | 0.00 | 0.01 | 0.01 | 39 | 1012.4 |
| 20260502204236 | 61 | 96 | 2.0 | 4.0 | 0.00 | 0.01 | 0.01 | 41 | 1012.3 |
| 20260502203734 | 60 | 211 | 2.0 | 4.0 | 0.00 | 0.01 | 0.01 | 41 | 1012.4 |
| 20260502203230 | 60 | 84 | 1.0 | 4.0 | 0.00 | 0.01 | 0.01 | 39 | 1012.4 |
| 20260502202724 | 60 | 36 | 1.0 | 3.0 | 0.00 | 0.01 | 0.01 | 40 | 1012.4 |
| 20260502202218 | 60 | 172 | 1.0 | 3.0 | 0.00 | 0.01 | 0.01 | 40 | 1012.5 |
| 20260502201712 | 60 | 46 | 1.0 | 3.0 | 0.00 | 0.01 | 0.01 | 39 | 1012.6 |
| 20260502201209 | 60 | 97 | 1.0 | 3.0 | 0.00 | 0.01 | 0.01 | 39 | 1012.7 |
| 20260502200709 | 61 | 113 | 1.0 | 3.0 | 0.00 | 0.01 | 0.01 | 39 | 1012.6 |
| 20260502200209 | 60 | 340 | 2.0 | 4.0 | 0.00 | 0.01 | 0.01 | 40 | 1012.9 |
| 20260502195709 | 60 | 44 | 2.0 | 4.0 | 0.00 | 0.01 | 0.01 | 40 | 1012.9 |
| 20260502195207 | 60 | 54 | 2.0 | 6.0 | 0.00 | 0.01 | 0.01 | 39 | 1012.9 |
| 20260502194706 | 60 | 184 | 2.0 | 6.0 | 0.00 | 0.01 | 0.01 | 39 | 1012.9 |
| 20260502194209 | 60 | 38 | 2.0 | 4.0 | 0.00 | 0.01 | 0.01 | 40 | 1013.1 |
| 20260502194031 | 59 | 97 | 2.0 | 4.0 | 0.00 | 0.01 | 0.01 | 42 | 1013.1 |
| 20260502193211 | 59 | 45 | 2.0 | 4.0 | 0.00 | 0.01 | 0.01 | 41 | 1013.2 |
| 20260502192708 | 59 | 46 | 2.0 | 4.0 | 0.00 | 0.01 | 0.01 | 41 | 1013.2 |
| 20260502192207 | 59 | 56 | 2.0 | 4.0 | 0.00 | 0.01 | 0.01 | 40 | 1013.4 |
| 20260502191707 | 59 | 55 | 2.0 | 4.0 | 0.00 | 0.01 | 0.01 | 41 | 1013.4 |
| 20260502191205 | 59 | 28 | 2.0 | 4.0 | 0.00 | 0.01 | 0.01 | 41 | 1013.5 |
| 20260502190705 | 59 | 78 | 1.0 | 6.0 | 0.00 | 0.01 | 0.01 | 43 | 1013.5 |
| 20260502190203 | 59 | 168 | 1.0 | 6.0 | 0.00 | 0.01 | 0.01 | 41 | 1013.6 |
| 20260502185704 | 59 | 67 | 2.0 | 4.0 | 0.00 | 0.01 | 0.01 | 41 | 1013.6 |
| 20260502185204 | 59 | 29 | 2.0 | 5.0 | 0.00 | 0.01 | 0.01 | 42 | 1013.6 |
| 20260502184703 | 59 | 334 | 2.0 | 5.0 | 0.00 | 0.01 | 0.01 | 43 | 1013.6 |
| 20260502184200 | 59 | 80 | 1.0 | 3.0 | 0.00 | 0.01 | 0.01 | 44 | 1013.6 |
| 20260502183654 | 59 | 61 | 1.0 | 3.0 | 0.00 | 0.01 | 0.01 | 45 | 1013.6 |
| 20260502183149 | 59 | 141 | 1.0 | 4.0 | 0.00 | 0.01 | 0.01 | 50 | 1013.6 |
| 20260502182642 | 59 | 42 | 1.0 | 6.0 | 0.00 | 0.01 | 0.01 | 51 | 1013.6 |
| 20260502182136 | 58 | 351 | 1.0 | 6.0 | 0.00 | 0.01 | 0.01 | 51 | 1013.6 |
| 20260502181636 | 58 | 27 | 1.0 | 4.0 | 0.00 | 0.01 | 0.01 | 51 | 1013.7 |
| 20260502181133 | 58 | 61 | 1.0 | 3.0 | 0.00 | 0.01 | 0.01 | 49 | 1013.7 |
| 20260502180634 | 59 | 65 | 1.0 | 3.0 | 0.00 | 0.01 | 0.01 | 49 | 1013.7 |
| 20260502180135 | 59 | 22 | 1.0 | 3.0 | 0.00 | 0.01 | 0.01 | 49 | 1013.7 |
| 20260502170439 | 58 | 42 | 2.0 | 4.0 | 0.00 | 0.01 | 0.01 | 58 | 1014.2 |
| 20260502164120 | 57 | 47 | 3.0 | 6.0 | 0.00 | 0.01 | 0.01 | 59 | 1014.3 |
| 20260502163613 | 57 | 61 | 3.0 | 7.0 | 0.00 | 0.01 | 0.01 | 60 | 1014.5 |
| 20260502163106 | 57 | 94 | 2.0 | 7.0 | 0.00 | 0.01 | 0.01 | 61 | 1014.5 |
| 20260502162606 | 57 | 69 | 2.0 | 4.0 | 0.00 | 0.01 | 0.01 | 61 | 1014.4 |
| 20260502162106 | 57 | 50 | 1.0 | 4.0 | 0.00 | 0.01 | 0.01 | 63 | 1014.5 |
| 20260502161608 | 56 | 97 | 2.0 | 4.0 | 0.00 | 0.01 | 0.01 | 62 | 1014.6 |
| 20260502161105 | 56 | 56 | 2.0 | 4.0 | 0.00 | 0.01 | 0.01 | 62 | 1014.7 |
| 20260502160606 | 56 | 53 | 2.0 | 4.0 | 0.00 | 0.01 | 0.01 | 63 | 1014.7 |
| 20260502160109 | 56 | 58 | 2.0 | 4.0 | 0.00 | 0.01 | 0.01 | 64 | 1014.7 |
| 20260502152102 | 55 | 38 | 1.0 | 4.0 | 0.00 | 0.01 | 0.01 | 67 | 1015.1 |
| 20260502151904 | 55 | 45 | 2.0 | 4.0 | 0.00 | 0.01 | 0.01 | 66 | 1015.4 |
| 20260502151100 | 55 | 55 | 1.0 | 4.0 | 0.00 | 0.01 | 0.01 | 67 | 1015.4 |
| 20260502150606 | 55 | 45 | 1.0 | 3.0 | 0.00 | 0.01 | 0.01 | 66 | 1015.3 |
| 20260502150105 | 55 | 50 | 2.0 | 4.0 | 0.00 | 0.01 | 0.01 | 67 | 1015.2 |
| 20260502130551 | 54 | 45 | 1.0 | 4.0 | 0.00 | 0.01 | 0.01 | 69 | 1014.5 |
| 20260502123551 | 54 | 78 | 0.0 | 3.0 | 0.00 | 0.01 | 0.01 | 71 | 1014.0 |
| 20260502123048 | 54 | 78 | 1.0 | 3.0 | 0.00 | 0.01 | 0.01 | 70 | 1014.0 |
| 20260502122545 | 54 | 277 | 0.0 | 3.0 | 0.00 | 0.01 | 0.01 | 71 | 1014.5 |
| 20260502122042 | 54 | 323 | 1.0 | 3.0 | 0.00 | 0.01 | 0.01 | 71 | 1014.2 |
| 20260502121540 | 54 | 59 | 1.0 | 3.0 | 0.00 | 0.01 | 0.01 | 71 | 1013.8 |
| 20260502121040 | 54 | 40 | 1.0 | 3.0 | 0.00 | 0.01 | 0.01 | 71 | 1013.4 |
| 20260502120542 | 54 | 43 | 1.0 | 3.0 | 0.00 | 0.01 | 0.01 | 71 | 1013.4 |
| 20260502115537 | 54 | 149 | 1.0 | 4.0 | 0.00 | 0.01 | 0.01 | 73 | 1013.7 |
| 20260502115038 | 54 | 234 | 0.0 | 4.0 | 0.00 | 0.01 | 0.01 | 73 | 1014.0 |
| 20260502114537 | 54 | 9 | 0.0 | 3.0 | 0.00 | 0.01 | 0.01 | 74 | 1013.9 |
| 20260502114035 | 54 | 355 | 0.0 | 3.0 | 0.00 | 0.01 | 0.01 | 74 | 1013.6 |
| 20260502113536 | 54 | 321 | 0.0 | 2.0 | 0.00 | 0.01 | 0.01 | 75 | 1013.6 |
| 20260502113035 | 54 | 32 | 1.0 | 3.0 | 0.00 | 0.01 | 0.01 | 74 | 1013.6 |
| 20260502112535 | 54 | 318 | 1.0 | 3.0 | 0.00 | 0.01 | 0.01 | 75 | 1013.5 |
| 20260502112034 | 54 | 42 | 1.0 | 5.0 | 0.00 | 0.01 | 0.01 | 75 | 1013.4 |
| 20260502111533 | 53 | 55 | 1.0 | 5.0 | 0.00 | 0.01 | 0.01 | 76 | 1013.5 |
| 20260502111030 | 53 | 47 | 1.0 | 5.0 | 0.00 | 0.01 | 0.01 | 77 | 1013.2 |
| 20260502110529 | 53 | 39 | 1.0 | 5.0 | 0.00 | 0.01 | 0.01 | 78 | 1013.0 |
| 20260502110024 | 53 | 45 | 1.0 | 4.0 | 0.00 | 0.01 | 0.01 | 79 | 1013.1 |
| 20260502105517 | 53 | 148 | 1.0 | 3.0 | 0.00 | 0.01 | 0.01 | 80 | 1013.0 |
| 20260502105316 | 53 | 56 | 1.0 | 3.0 | 0.00 | 0.01 | 0.01 | 80 | 1013.0 |
| 20260502104510 | 53 | 247 | 0.0 | 2.0 | 0.00 | 0.01 | 0.01 | 81 | 1013.2 |
| 20260502104010 | 53 | 326 | 0.0 | 2.0 | 0.00 | 0.01 | 0.01 | 82 | 1013.1 |
| 20260502103820 | 53 | 169 | 0.0 | 1.0 | 0.00 | 0.01 | 0.01 | 82 | 1013.2 |
| 20260502103011 | 53 | 144 | 0.0 | 1.0 | 0.00 | 0.01 | 0.01 | 83 | 1013.1 |
| 20260502102813 | 53 | 98 | 0.0 | 1.0 | 0.00 | 0.01 | 0.01 | 83 | 1013.0 |
| 20260502102012 | 53 | 70 | 0.0 | 4.0 | 0.00 | 0.01 | 0.01 | 83 | 1013.0 |
| 20260502101809 | 53 | 70 | 0.0 | 4.0 | 0.01 | 0.01 | 0.01 | 83 | 1012.9 |
| 20260502101008 | 53 | 340 | 0.0 | 2.0 | 0.01 | 0.01 | 0.01 | 84 | 1013.1 |
| 20260502100506 | 53 | 19 | 0.0 | 2.0 | 0.01 | 0.01 | 0.01 | 85 | 1013.1 |
| 20260502100307 | 54 | 19 | 0.0 | 2.0 | 0.01 | 0.01 | 0.01 | 85 | 1013.2 |
| 20260502091459 | 54 | 329 | 0.0 | 1.0 | 0.00 | 0.00 | 0.00 | 88 | 1014.0 |
| 20260502091255 | 54 | 328 | 0.0 | 1.0 | 0.00 | 0.00 | 0.00 | 87 | 1014.2 |
| 20260502090453 | 54 | 328 | 0.0 | 0.0 | 0.00 | 0.00 | 0.00 | 87 | 1014.2 |
| 20260502071420 | 54 | 121 | 0.0 | 0.0 | 0.00 | 0.00 | 0.00 | 85 | 1012.4 |
| 20260502070911 | 54 | 121 | 0.0 | 0.0 | 0.00 | 0.00 | 0.00 | 85 | 1012.4 |
| 20260502070410 | 54 | 121 | 0.0 | 0.0 | 0.00 | 0.00 | 0.00 | 85 | 1012.3 |
| 20260502065909 | 54 | 121 | 0.0 | 1.0 | 0.00 | 0.00 | 0.00 | 85 | 1012.4 |
| 20260502065406 | 55 | 121 | 0.0 | 1.0 | 0.00 | 0.00 | 0.00 | 85 | 1012.2 |
| 20260502064903 | 55 | 121 | 0.0 | 0.0 | 0.00 | 0.00 | 0.00 | 84 | 1012.5 |
| 20260502064404 | 55 | 121 | 0.0 | 0.0 | 0.00 | 0.00 | 0.00 | 85 | 1012.4 |
| 20260502063904 | 55 | 121 | 0.0 | 0.0 | 0.00 | 0.00 | 0.00 | 85 | 1012.4 |
| 20260502063406 | 55 | 121 | 0.0 | 0.0 | 0.00 | 0.00 | 0.00 | 85 | 1012.4 |
| 20260502062904 | 55 | 121 | 0.0 | 0.0 | 0.00 | 0.00 | 0.00 | 85 | 1012.6 |
| 20260502062402 | 55 | 121 | 0.0 | 0.0 | 0.00 | 0.00 | 0.00 | 85 | 1012.6 |
| 20260502061903 | 55 | 121 | 0.0 | 0.0 | 0.00 | 0.00 | 0.00 | 85 | 1012.7 |
| 20260502061403 | 55 | 121 | 0.0 | 0.0 | 0.00 | 0.00 | 0.00 | 85 | 1012.7 |
| 20260502061151 | 55 | 121 | 0.0 | 0.0 | 0.00 | 0.00 | 0.00 | 85 | 1012.9 |
| 20260502060651 | 55 | 121 | 0.0 | 1.0 | 0.00 | 0.00 | 0.00 | 85 | 1012.9 |
| 20260502055859 | 55 | 121 | 0.0 | 1.0 | 0.00 | 0.00 | 0.00 | 85 | 1012.9 |
| 20260502055358 | 55 | 121 | 0.0 | 1.0 | 0.00 | 0.00 | 0.00 | 85 | 1013.0 |
| 20260502054900 | 55 | 121 | 0.0 | 0.0 | 0.00 | 0.00 | 0.00 | 85 | 1012.9 |
| 20260502054704 | 55 | 121 | 0.0 | 1.0 | 0.00 | 0.00 | 0.00 | 85 | 1013.1 |
| 20260502053854 | 55 | 121 | 0.0 | 1.0 | 0.00 | 0.00 | 0.00 | 85 | 1013.1 |
| 20260502053353 | 55 | 121 | 0.0 | 0.0 | 0.00 | 0.00 | 0.00 | 84 | 1013.1 |
| 20260502052850 | 55 | 121 | 0.0 | 0.0 | 0.00 | 0.00 | 0.00 | 85 | 1013.1 |
| 20260502052349 | 55 | 121 | 0.0 | 0.0 | 0.00 | 0.00 | 0.00 | 85 | 1013.2 |
| 20260502051947 | 55 | 121 | 0.0 | 0.0 | 0.00 | 0.00 | 0.00 | 83 | 1013.2 |
| 20260502051930 | 55 | 121 | 0.0 | 0.0 | 0.00 | 0.00 | 0.00 | 84 | 1013.2 |
| 20260502050849 | 55 | 121 | 0.0 | 0.0 | 0.00 | 0.00 | 0.00 | 83 | 1013.1 |
| 20260502050350 | 55 | 121 | 0.0 | 0.0 | 0.00 | 0.00 | 0.00 | 83 | 1013.3 |
| 20260502045846 | 55 | 121 | 0.0 | 0.0 | 0.00 | 0.00 | 0.00 | 83 | 1013.3 |
| 20260502045345 | 55 | 121 | 0.0 | 0.0 | 0.00 | 0.00 | 0.00 | 83 | 1013.4 |
| 20260502044844 | 55 | 121 | 0.0 | 0.0 | 0.00 | 0.00 | 0.00 | 82 | 1013.4 |
| 20260502044345 | 55 | 121 | 0.0 | 0.0 | 0.00 | 0.00 | 0.00 | 82 | 1013.4 |
| 20260502043845 | 55 | 121 | 0.0 | 0.0 | 0.00 | 0.00 | 0.00 | 82 | 1013.5 |
| 20260502043345 | 55 | 121 | 0.0 | 1.0 | 0.00 | 0.00 | 0.00 | 82 | 1013.4 |
| 20260502042845 | 55 | 121 | 0.0 | 1.0 | 0.00 | 0.00 | 0.00 | 82 | 1013.4 |
| 20260502042346 | 55 | 121 | 0.0 | 0.0 | 0.00 | 0.00 | 0.00 | 81 | 1013.3 |
| 20260502041844 | 55 | 121 | 0.0 | 0.0 | 0.00 | 0.00 | 0.00 | 81 | 1013.4 |
| 20260502041345 | 56 | 121 | 0.0 | 0.0 | 0.00 | 0.00 | 0.00 | 81 | 1013.4 |
| 20260502040845 | 56 | 121 | 0.0 | 0.0 | 0.00 | 0.00 | 0.00 | 81 | 1013.5 |
| 20260502040344 | 56 | 121 | 0.0 | 0.0 | 0.00 | 0.00 | 0.00 | 81 | 1013.4 |
| 20260502035843 | 56 | 121 | 0.0 | 0.0 | 0.00 | 0.00 | 0.00 | 80 | 1013.5 |
| 20260502035338 | 56 | 121 | 0.0 | 0.0 | 0.00 | 0.00 | 0.00 | 80 | 1013.5 |
| 20260502034831 | 56 | 121 | 0.0 | 0.0 | 0.00 | 0.00 | 0.00 | 80 | 1013.5 |
| 20260502034635 | 56 | 121 | 0.0 | 0.0 | 0.00 | 0.00 | 0.00 | 80 | 1013.5 |
| 20260502033819 | 56 | 121 | 0.0 | 0.0 | 0.00 | 0.00 | 0.00 | 80 | 1013.6 |
| 20260502033319 | 56 | 121 | 0.0 | 0.0 | 0.00 | 0.00 | 0.00 | 79 | 1013.5 |
| 20260502032817 | 56 | 121 | 0.0 | 0.0 | 0.00 | 0.00 | 0.00 | 79 | 1013.7 |
| 20260502032315 | 56 | 121 | 0.0 | 1.0 | 0.00 | 0.00 | 0.00 | 79 | 1013.8 |
| 20260502032115 | 56 | 121 | 0.0 | 1.0 | 0.00 | 0.00 | 0.00 | 78 | 1013.8 |
| 20260502031310 | 56 | 121 | 0.0 | 0.0 | 0.00 | 0.00 | 0.00 | 78 | 1013.8 |
| 20260502030811 | 56 | 121 | 0.0 | 0.0 | 0.00 | 0.00 | 0.00 | 78 | 1013.8 |
| 20260502030310 | 56 | 121 | 0.0 | 1.0 | 0.00 | 0.00 | 0.00 | 78 | 1013.9 |
| 20260502025809 | 56 | 121 | 0.0 | 1.0 | 0.00 | 0.00 | 0.00 | 78 | 1013.9 |
| 20260502025307 | 57 | 121 | 0.0 | 1.0 | 0.00 | 0.00 | 0.00 | 78 | 1013.9 |
| 20260502024807 | 57 | 121 | 0.0 | 1.0 | 0.00 | 0.00 | 0.00 | 78 | 1013.8 |
| 20260502024610 | 57 | 121 | 0.0 | 1.0 | 0.00 | 0.00 | 0.00 | 78 | 1014.0 |
| 20260502023804 | 57 | 121 | 0.0 | 1.0 | 0.00 | 0.00 | 0.00 | 78 | 1013.9 |
| 20260502023605 | 57 | 121 | 0.0 | 1.0 | 0.00 | 0.00 | 0.00 | 77 | 1013.9 |
| 20260502022802 | 57 | 121 | 0.0 | 1.0 | 0.00 | 0.00 | 0.00 | 77 | 1013.9 |
| 20260502022305 | 57 | 121 | 0.0 | 1.0 | 0.00 | 0.00 | 0.00 | 77 | 1014.0 |
| 20260502021801 | 57 | 121 | 0.0 | 1.0 | 0.00 | 0.00 | 0.00 | 76 | 1014.0 |
| 20260502021303 | 57 | 121 | 0.0 | 1.0 | 0.00 | 0.00 | 0.00 | 76 | 1014.2 |
| 20260502020801 | 57 | 121 | 0.0 | 1.0 | 0.00 | 0.00 | 0.00 | 76 | 1014.0 |
| 20260502020303 | 57 | 121 | 0.0 | 1.0 | 0.00 | 0.00 | 0.00 | 76 | 1013.9 |
| 20260502015801 | 57 | 121 | 0.0 | 1.0 | 0.00 | 0.00 | 0.00 | 76 | 1013.8 |
| 20260502015255 | 57 | 121 | 0.0 | 1.0 | 0.00 | 0.00 | 0.00 | 75 | 1013.7 |
| 20260502014750 | 57 | 121 | 0.0 | 1.0 | 0.00 | 0.00 | 0.00 | 75 | 1013.8 |
| 20260502014244 | 57 | 121 | 0.0 | 1.0 | 0.00 | 0.00 | 0.00 | 75 | 1013.8 |
| 20260502013743 | 57 | 121 | 0.0 | 2.0 | 0.00 | 0.00 | 0.00 | 75 | 1013.9 |
| 20260502013242 | 58 | 121 | 0.0 | 2.0 | 0.00 | 0.00 | 0.00 | 74 | 1013.9 |
| 20260502012742 | 58 | 121 | 0.0 | 1.0 | 0.00 | 0.00 | 0.00 | 74 | 1013.8 |